User: anonymous   Login
Location: Myra
(43.4160°N, 88.0960°W)
Time: 17:03:02
(UTC-05:00)
Language:

SL-8 R/B - Orbit

View from above orbital plane
View from above orbital plane
View from above satellite
View from above satellite

Ground track
Ground track

The orbit data is extracted from the following two-line orbital elements,

1 33066U 08031G   15090.02972777  .00000555  00000-0  12621-3 0  9996
2 33066 048.4437 294.3459 0008036 295.5350 226.8173 14.69162047363766
Epoch (UTC): 31 March 2015 00:42:48
Eccentricity: 0.0008036
inclination: 48.4437°
perigee height: 658 km
apogee height: 669 km
right ascension of ascending node: 294.3459°
argument of perigee: 295.5350°
revolutions per day: 14.69162047
mean anomaly at epoch: 226.8173°
orbit number at epoch: 36376

The dashed part of the orbit path shows where the satellite is in the earth's shadow,  

DLR